Regional Weather Roundup
Issued by NWS

Home | Current Version | Previous Version | Text Only | Print | Product List | Glossary Off
Versions: 1 2 3 4 5 6 7 8 9 10 11 12 13 14 15 16 17 18 19 20 21 22 23 24 25 26 27 28 29 30 31 32 33 34 35 36 37 38 39 40 41 42 43 44 45 46 47 48 49 50

000
ASUS45 KBOU 280207
RWRCO

WEATHER ROUNDUP FOR COLORADO
NATIONAL WEATHER SERVICE DENVER/BOULDER CO
700 PM MST TUE JAN 27 2015

NOTE: "FAIR" INDICATES FEW OR NO CLOUDS BELOW 12000 FEET WITH NO
SIGNIFICANT WEATHER AND/OR OBSTRUCTIONS TO VISIBILITY.

COZ001>005-013-030-031-280300-
...NORTHWEST COLORADO...

CITY           SKY/WX    TMP DP  RH WIND       PRES   REMARKS
CRAIG          CLOUDY    35  30  82 W5        30.23R WCI  31
HAYDEN         CLOUDY    37  27  65 CALM      30.22S
MEEKER         MOCLDY    45  29  53 W3        30.23R
MOUNT WERNER   NOT AVBL
STEAMBOAT SPGS CLOUDY    37  24  60 CALM      30.22S
WALDEN         MOCLDY    36  23  60 S8        30.21R
$$

COZ006>008-011-280300-
...WEST CENTRAL VALLEYS...

CITY           SKY/WX    TMP DP  RH WIND       PRES   REMARKS
GRAND JUNCTION MOCLDY    40  28  62 N6        30.24S
MONTROSE       PTCLDY    37  24  59 SE8       30.27S
EAGLE          CLOUDY    39  28  65 VRB7      30.25R
RIFLE          PTCLDY    40  27  59 E5        30.23S
DELTA          PTCLDY    42  28  57 S5        30.24R
NUCLA          MOCLDY    46  32  57 SE3       30.30R
$$

COZ017>023-064>068-280300-
...SOUTHWEST COLORADO...

CITY           SKY/WX    TMP DP  RH WIND       PRES   REMARKS
DURANGO        CLEAR     38  28  67 N9        30.29R
CORTEZ         CLEAR     35  28  75 E5        30.28R WCI  31
PAGOSA SPRINGS CLOUDY    37  28  69 CALM      30.31S
TELLURIDE      NOT AVBL
WOLF CREEK PAS NOT AVBL
$$

COZ009-010-012-014-032>034-037-058>063-280300-
...CENTRAL COLORADO...

CITY           SKY/WX    TMP DP  RH WIND       PRES   REMARKS
ASPEN          MOCLDY    37  26  64 S5        30.26R
BUENA VISTA    CLEAR     33  23  68 SW5       30.23S WCI  28
COPPER MTN     PTCLDY    34  10  37 W5        30.37F WCI  30
BERTHOUD PASS  FAIR      28  23  80 NW9       30.39F WCI  20
COTTONWOOD PAS PTCLDY    43   9  24 CALM      30.29S
GUNNISON       CLOUDY    19  12  73 NE5       30.33S WCI  13
KREMMLING      CLOUDY    23  18  80 CALM      30.27R
LEADVILLE      PTCLDY    28  13  53 NE5       30.28S WCI  23
MONARCH PASS   PTCLDY    30  14  51 W22       30.47S WCI  17
SALIDA         CLEAR     46  18  32 W13       30.29R
SUNLIGHT       MOCLDY    32  25  74 CALM      30.36R
WILKERSON PASS CLEAR     34  14  44 SW7       30.36S WCI  28
$$

COZ069>075-280300-
...SAN LUIS VALLEY/SANGRE DE CRISTO MOUNTAINS...

CITY           SKY/WX    TMP DP  RH WIND       PRES   REMARKS
ALAMOSA        MOCLDY    33  22  63 NW6       30.26R WCI  28
LA VETA PASS   NOT AVBL
SAGUACHE       PTCLDY    28  23  80 NW8       30.28S WCI  20
$$

COZ035-036-038>040-280300-
...NORTHERN COLORADO FRONT RANGE...

CITY           SKY/WX    TMP DP  RH WIND       PRES   REMARKS
DENVER INTL AP PTCLDY    53  33  46 W6        30.02R
DMNS CITY PARK   N/A     57  26  30 NW7       30.01S
AURORA         PTCLDY    51  33  50 NW8       30.03R
FRONT RANGE AP NOT AVBL
ERIE MUNI ARPT CLEAR     41  27  56 CALM      30.01F
BOULDER MUN AP CLEAR     59  18  20 W6        30.01F
CENTENNIAL     CLEAR     53  32  44 W7        30.03S
BROOMFIELD     PTCLDY    57  18  21 NW12      30.03F
FORT COLLINS   CLEAR     52  23  32 NW6       30.03R
LONGMONT       CLEAR     49  19  30 NE3       30.03S
$$

COZ041-046-047-076>085-087-088-280300-
...PIKES PEAK/PALMER DIVIDE AND SOUTHERN FOOTHILLS...

CITY           SKY/WX    TMP DP  RH WIND       PRES   REMARKS
COLO. SPRINGS  CLEAR     49  24  37 E7        30.07S
A. F. ACADEMY  CLEAR     38  24  57 N9        30.08S
ELLICOTT       CLEAR    N/A N/A N/A S9        30.06F
FALCON         CLEAR     47  19  33 S6        30.11F
FORT CARSON    CLEAR     51  21  30 VRB1      30.04S
LIMON          CLEAR     34  23  64 CALM      30.02F
MONUMENT HILL  CLEAR     39  25  56 SW7       30.10S
TRINIDAD       CLEAR     48  30  49 SW14      30.08F
$$

COZ042>045-048>051-090-091-280300-
...NORTHEAST COLORADO...

CITY           SKY/WX    TMP DP  RH WIND       PRES   REMARKS
GREELEY ARPT   CLEAR     39  28  65 N9        29.99R
AKRON          PTCLDY    56  26  31 SE6       29.97F
BURLINGTON     PTCLDY    50  30  46 S14       29.99S
WRAY           MOCLDY    58  29  32 SW3       29.95F
STERLING       PTCLDY    45  34  65 N6        29.95S
HOLYOKE        MOCLDY    46  30  53 E5        29.96S
FORT MORGAN    PTCLDY    51  28  41 NE10      29.97F
$$

COZ086-089-092>099-280300-
...SOUTHEAST COLORADO...

CITY           SKY/WX    TMP DP  RH WIND       PRES   REMARKS
PUEBLO         CLEAR     47  26  44 N7        30.00R
LA JUNTA       CLEAR     54  33  45 SW15      29.99S
LAMAR          CLEAR     45  32  60 S9        29.96S
SPRINGFIELD      N/A     47  34  60 SW9       30.03F
$$



USA.gov is the U.S. government's official web portal to all federal, state and local government web resources and services.